EW6167 Weather Reports


time (UTC)temp
C
wind
direction
speed
KPH
gust
KPH
rain 1hr
cm
rain 24hr
cm
rain mn
cm
humidity
%
barometer
mb
20260906235037 25 180 29.0 0.0 0.00 0.00 0.00 17 1003.7
20260906234559 25 221 29.0 0.0 0.00 0.00 0.00 16 1003.7
20260906234013 26 185 25.7 0.0 0.00 0.00 0.00 16 1003.8
20260906233529 25 174 27.4 0.0 0.00 0.00 0.00 17 1003.7
20260906233037 25 187 30.6 0.0 0.00 0.00 0.00 16 1003.7
20260906232551 25 223 33.8 0.0 0.00 0.00 0.00 17 1003.8
20260906232005 25 214 32.2 0.0 0.00 0.00 0.00 16 1003.6
20260906231528 25 225 32.2 0.0 0.00 0.00 0.00 16 1003.7
20260906231042 26 188 29.0 0.0 0.00 0.00 0.00 16 1003.7
20260906230554 26 194 27.4 0.0 0.00 0.00 0.00 16 1003.7
20260906230010 26 170 27.4 0.0 0.00 0.00 0.00 16 1003.9
20260906225532 26 167 25.7 0.0 0.00 0.00 0.00 16 1004.0
20260906225041 26 161 30.6 0.0 0.00 0.00 0.00 17 1004.1
20260906224051 26 219 32.2 0.0 0.00 0.00 0.00 16 1003.8
20260906223545 26 192 30.6 0.0 0.00 0.00 0.00 16 1003.8
20260906223045 26 211 30.6 0.0 0.00 0.00 0.00 16 1003.9
20260906222554 26 180 27.4 0.0 0.00 0.00 0.00 16 1004.0
20260906222054 26 182 27.4 0.0 0.00 0.00 0.00 16 1004.1
20260906221559 26 194 27.4 0.0 0.00 0.00 0.00 16 1004.1
20260906221101 26 196 30.6 0.0 0.00 0.00 0.00 16 1004.0
20260906220558 26 197 30.6 0.0 0.00 0.00 0.00 16 1004.0
20260906220058 26 192 30.6 0.0 0.00 0.00 0.00 16 1004.3
20260906215555 26 186 29.0 0.0 0.00 0.00 0.00 16 1004.4
20260906215057 26 198 29.0 0.0 0.00 0.00 0.00 16 1004.5
20260906214602 26 216 29.0 0.0 0.00 0.00 0.00 16 1004.6
20260906214010 26 178 25.7 0.0 0.00 0.00 0.00 16 1004.5
20260906213511 26 221 29.0 0.0 0.00 0.00 0.00 17 1004.7
20260906213017 26 196 29.0 0.0 0.00 0.00 0.00 16 1004.8
20260906212523 26 196 25.7 0.0 0.00 0.00 0.00 16 1004.6
20260906212050 26 171 27.4 0.0 0.00 0.00 0.00 15 1004.8
20260906211601 26 186 29.0 0.0 0.00 0.00 0.00 15 1004.9
20260906211101 26 204 25.7 0.0 0.00 0.00 0.00 15 1004.7
20260906210558 26 189 22.5 0.0 0.00 0.00 0.00 15 1004.7
20260906210005 26 195 24.1 0.0 0.00 0.00 0.00 16 1004.8
20260906205507 26 198 25.7 0.0 0.00 0.00 0.00 16 1004.7
20260906205024 26 204 27.4 0.0 0.00 0.00 0.00 16 1004.8
20260906204524 25 239 29.0 0.0 0.00 0.00 0.00 16 1004.8
20260906204035 26 198 30.6 0.0 0.00 0.00 0.00 16 1004.9
20260906203526 26 229 29.0 0.0 0.00 0.00 0.00 16 1005.0
20260906203025 26 198 27.4 0.0 0.00 0.00 0.00 16 1005.0
20260906202529 26 186 25.7 0.0 0.00 0.00 0.00 17 1005.2
20260906202037 26 200 25.7 0.0 0.00 0.00 0.00 16 1005.2
20260906201535 26 211 29.0 0.0 0.00 0.00 0.00 16 1005.5
20260906201042 25 210 30.6 0.0 0.00 0.00 0.00 16 1005.4
20260906200542 25 123 27.4 0.0 0.00 0.00 0.00 17 1005.6
20260906200040 25 203 27.4 0.0 0.00 0.00 0.00 17 1005.6
20260906195538 25 197 29.0 0.0 0.00 0.00 0.00 18 1005.6
20260906195042 25 211 25.7 0.0 0.00 0.00 0.00 17 1005.6
20260906194551 25 180 24.1 0.0 0.00 0.00 0.00 19 1005.7
20260906194059 24 211 14.5 0.0 0.00 0.00 0.00 19 1005.7
20260906193601 22 180 8.0 0.0 0.00 0.00 0.00 27 1006.0
20260906193005 22 337 9.7 0.0 0.00 0.00 0.00 36 1005.9
20260906192516 22 330 11.3 0.0 0.00 0.00 0.00 37 1005.9
20260906192039 21 299 11.3 0.0 0.00 0.00 0.00 34 1006.0
20260906191547 21 321 9.7 0.0 0.00 0.00 0.00 37 1006.1
20260906191055 21 360 9.7 0.0 0.00 0.00 0.00 40 1006.4
20260906190515 20 304 9.7 0.0 0.00 0.00 0.00 40 1006.6
20260906190025 20 355 9.7 0.0 0.00 0.00 0.00 42 1006.7
20260906185533 20 5 9.7 0.0 0.00 0.00 0.00 42 1006.9
20260906185041 19 317 8.0 0.0 0.00 0.00 0.00 43 1006.8
20260906184553 19 329 8.0 0.0 0.00 0.00 0.00 44 1007.1
20260906184011 18 332 9.7 0.0 0.00 0.00 0.00 47 1007.3
20260906183526 18 349 8.0 0.0 0.00 0.00 0.00 47 1007.5
20260906183042 18 322 6.4 0.0 0.00 0.00 0.00 49 1007.6
20260906182546 17 17 6.4 0.0 0.00 0.00 0.00 49 1007.6
20260906182059 17 329 8.0 0.0 0.00 0.00 0.00 49 1007.8
20260906181504 17 302 8.0 0.0 0.00 0.00 0.00 50 1008.0
20260906181016 17 350 6.4 0.0 0.00 0.00 0.00 51 1008.2
20260906180540 17 274 6.4 0.0 0.00 0.00 0.00 51 1008.2
20260906180047 16 318 6.4 0.0 0.00 0.00 0.00 53 1008.5
20260906175556 16 340 8.0 0.0 0.00 0.00 0.00 53 1008.5
20260906175005 16 302 4.8 0.0 0.00 0.00 0.00 54 1008.8
20260906174522 16 336 8.0 0.0 0.00 0.00 0.00 54 1008.8
20260906174038 16 346 8.0 0.0 0.00 0.00 0.00 55 1009.0
20260906173550 16 321 8.0 0.0 0.00 0.00 0.00 56 1009.2
20260906173057 16 250 6.4 0.0 0.00 0.00 0.00 56 1009.2
20260906172504 16 298 8.0 0.0 0.00 0.00 0.00 58 1009.3
20260906172022 15 310 4.8 0.0 0.00 0.00 0.00 58 1009.4
20260906171530 15 350 6.4 0.0 0.00 0.00 0.00 61 1009.5
20260906171038 15 350 8.0 0.0 0.00 0.00 0.00 60 1009.6
20260906170559 15 339 6.4 0.0 0.00 0.00 0.00 60 1009.7
20260906170025 14 323 6.4 0.0 0.00 0.00 0.00 62 1009.8
20260906165530 14 309 6.4 0.0 0.00 0.00 0.00 62 1009.8
20260906165041 14 9 6.4 0.0 0.00 0.00 0.00 63 1009.7
20260906164546 14 334 6.4 0.0 0.00 0.00 0.00 63 1009.9
20260906164058 14 309 4.8 0.0 0.00 0.00 0.00 63 1010.1
20260906163515 13 360 6.4 0.0 0.00 0.00 0.00 64 1010.2
20260906163034 13 360 9.7 0.0 0.00 0.00 0.00 63 1010.4
20260906162542 13 338 11.3 0.0 0.00 0.00 0.00 63 1010.3
20260906162053 13 327 11.3 0.0 0.00 0.00 0.00 63 1010.4
20260906161601 13 355 9.7 0.0 0.00 0.00 0.00 62 1010.6
20260906161008 13 334 6.4 0.0 0.00 0.00 0.00 62 1010.6
20260906160528 13 11 8.0 0.0 0.00 0.00 0.00 61 1010.5
20260906160058 13 336 8.0 0.0 0.00 0.00 0.00 61 1010.6
20260906155554 13 29 6.4 0.0 0.00 0.00 0.00 62 1010.7
20260906155106 13 350 6.4 0.0 0.00 0.00 0.00 61 1010.8
20260906154513 13 342 6.4 0.0 0.00 0.00 0.00 61 1010.8
20260906154020 13 350 8.0 0.0 0.00 0.00 0.00 61 1010.7
20260906153532 13 344 4.8 0.0 0.00 0.00 0.00 60 1010.8
20260906153043 13 346 4.8 0.0 0.00 0.00 0.00 61 1010.9
20260906152601 13 332 4.8 0.0 0.00 0.00 0.00 62 1011.0
20260906152014 13 323 4.8 0.0 0.00 0.00 0.00 62 1010.9
20260906151524 13 27 3.2 0.0 0.00 0.00 0.00 62 1011.1
20260906151032 13 15 4.8 0.0 0.00 0.00 0.00 62 1011.3
20260906150544 13 9 4.8 0.0 0.00 0.00 0.00 62 1011.4
20260906150050 13 105 3.2 0.0 0.00 0.00 0.00 60 1011.5
20260906145557 13 88 3.2 0.0 0.00 0.00 0.00 61 1011.7
20260906145002 13 108 4.8 0.0 0.00 0.00 0.00 62 1011.7
20260906144507 13 108 4.8 0.0 0.00 0.00 0.00 62 1011.8
20260906144014 12 108 3.2 0.0 0.00 0.00 0.00 63 1011.8
20260906143520 12 108 3.2 0.0 0.00 0.00 0.00 64 1011.9
20260906143032 12 171 3.2 0.0 0.00 0.00 0.00 65 1011.8
20260906142542 11 199 3.2 0.0 0.00 0.00 0.00 66 1011.9
20260906142050 10 184 3.2 0.0 0.00 0.00 0.00 69 1011.8
20260906141549 10 184 3.2 0.0 0.00 0.00 0.00 70 1011.9
20260906141003 8 184 3.2 0.0 0.00 0.00 0.00 73 1011.9
20260906140524 8 184 3.2 0.0 0.00 0.00 0.00 74 1011.9
20260906140041 7 184 3.2 0.0 0.00 0.00 0.00 76 1011.9
20260906135546 7 184 3.2 0.0 0.00 0.00 0.00 75 1011.8
20260906135045 6 184 4.8 0.0 0.00 0.00 0.00 74 1011.8
20260906134549 6 184 4.8 0.0 0.00 0.00 0.00 71 1011.6
20260906134051 7 184 3.2 0.0 0.00 0.00 0.00 72 1011.6
20260906133601 7 184 3.2 0.0 0.00 0.00 0.00 74 1011.5
20260906133014 7 184 4.8 0.0 0.00 0.00 0.00 72 1011.6
20260906132532 7 184 4.8 0.0 0.00 0.00 0.00 73 1011.7
20260906132050 6 184 6.4 0.0 0.00 0.00 0.00 75 1011.7
20260906131605 6 184 6.4 0.0 0.00 0.00 0.00 73 1011.7
20260906131014 6 184 6.4 0.0 0.00 0.00 0.00 72 1011.4
20260906130525 6 184 6.4 0.0 0.00 0.00 0.00 72 1011.2
20260906130039 6 184 6.4 0.0 0.00 0.00 0.00 75 1011.2
20260906125559 5 184 4.8 0.0 0.00 0.00 0.00 74 1011.3
20260906125104 5 184 6.4 0.0 0.00 0.00 0.00 73 1011.3
20260906124518 6 184 4.8 0.0 0.00 0.00 0.00 71 1011.2
20260906124034 6 184 4.8 0.0 0.00 0.00 0.00 73 1011.2
20260906123549 5 184 4.8 0.0 0.00 0.00 0.00 74 1011.2
20260906123100 5 184 4.8 0.0 0.00 0.00 0.00 73 1011.1
20260906122515 6 184 6.4 0.0 0.00 0.00 0.00 72 1011.0
20260906122025 6 184 4.8 0.0 0.00 0.00 0.00 72 1011.0
20260906121534 6 184 4.8 0.0 0.00 0.00 0.00 71 1010.9
20260906121048 6 185 6.4 0.0 0.00 0.00 0.00 71 1010.9
20260906120558 6 193 6.4 0.0 0.00 0.00 0.00 70 1010.9
20260906120104 7 193 4.8 0.0 0.00 0.00 0.00 70 1010.7
20260906115526 7 199 1.6 0.0 0.00 0.00 0.00 70 1010.7
20260906115029 7 200 1.6 0.0 0.00 0.00 0.00 70 1010.6
20260906114539 7 200 3.2 0.0 0.00 0.00 0.00 69 1010.5
20260906114049 7 200 4.8 0.0 0.00 0.00 0.00 70 1010.4
20260906113601 7 200 4.8 0.0 0.00 0.00 0.00 70 1010.2
20260906113003 7 200 6.4 0.0 0.00 0.00 0.00 70 1010.0
20260906112521 7 200 6.4 0.0 0.00 0.00 0.00 70 1009.7
20260906112039 7 200 6.4 0.0 0.00 0.00 0.00 69 1009.5
20260906111545 6 200 6.4 0.0 0.00 0.00 0.00 69 1009.6
20260906111055 6 200 8.0 0.0 0.00 0.00 0.00 69 1009.5
20260906110504 6 200 8.0 0.0 0.00 0.00 0.00 69 1009.4
20260906110014 6 200 6.4 0.0 0.00 0.00 0.00 69 1009.4
20260906105537 7 183 8.0 0.0 0.00 0.00 0.00 68 1009.4
20260906105046 7 191 6.4 0.0 0.00 0.00 0.00 68 1009.3
20260906104629 7 187 6.4 0.0 0.00 0.00 0.00 67 1009.4
20260906104025 7 195 6.4 0.0 0.00 0.00 0.00 67 1009.3
20260906103548 7 204 4.8 0.0 0.00 0.00 0.00 67 1009.4
20260906103103 7 201 4.8 0.0 0.00 0.00 0.00 66 1009.3
20260906102513 7 201 4.8 0.0 0.00 0.00 0.00 66 1009.2
20260906102034 7 201 4.8 0.0 0.00 0.00 0.00 66 1009.2
20260906101556 7 201 4.8 0.0 0.00 0.00 0.00 65 1009.1
20260906101003 7 201 4.8 0.0 0.00 0.00 0.00 65 1009.1
20260906100522 7 201 4.8 0.0 0.00 0.00 0.00 65 1009.2
20260906100042 7 198 6.4 0.0 0.00 0.00 0.00 64 1009.1
20260906095549 7 200 6.4 0.0 0.00 0.00 0.00 63 1009.1
20260906095104 7 186 8.0 0.0 0.00 0.00 0.00 63 1008.9
20260906094513 7 294 8.0 0.0 0.00 0.00 0.00 63 1009.0
20260906094038 7 294 8.0 0.0 0.00 0.00 0.00 63 1008.9
20260906093554 7 294 8.0 0.0 0.00 0.00 0.00 64 1009.0
20260906093124 7 294 8.0 0.0 0.00 0.00 0.00 63 1009.0
20260906092517 7 294 9.7 0.0 0.00 0.00 0.00 63 1008.9
20260906092031 7 294 8.0 0.0 0.00 0.00 0.00 62 1008.9
20260906091537 7 294 8.0 0.0 0.00 0.00 0.00 62 1008.9
20260906091048 7 294 6.4 0.0 0.00 0.00 0.00 61 1008.9
20260906090559 7 294 6.4 0.0 0.00 0.00 0.00 61 1008.9
20260906090103 7 294 6.4 0.0 0.00 0.00 0.00 61 1009.0
20260906085520 8 294 6.4 0.0 0.00 0.00 0.00 60 1009.1
20260906085035 8 294 4.8 0.0 0.00 0.00 0.00 59 1009.1
20260906084540 8 302 3.2 0.0 0.00 0.00 0.00 57 1009.0
20260906084044 9 302 1.6 0.0 0.00 0.00 0.00 55 1009.2
20260906083547 9 302 0.0 0.0 0.00 0.00 0.00 56 1008.8
20260906083055 10 302 0.0 0.0 0.00 0.00 0.00 55 1008.9
20260906082605 10 302 3.2 0.0 0.00 0.00 0.00 55 1008.9
20260906082104 10 302 4.8 0.0 0.00 0.00 0.00 55 1008.8
20260906081521 10 302 6.4 0.0 0.00 0.00 0.00 55 1008.8
20260906081038 10 302 6.4 0.0 0.00 0.00 0.00 53 1008.9
20260906080547 11 302 6.4 0.0 0.00 0.00 0.00 52 1009.0
20260906080055 11 302 6.4 0.0 0.00 0.00 0.00 52 1009.0
20260906075504 10 302 6.4 0.0 0.00 0.00 0.00 54 1009.2
20260906075021 10 302 8.0 0.0 0.00 0.00 0.00 55 1009.2
20260906074535 10 290 9.7 0.0 0.00 0.00 0.00 56 1009.2
20260906074040 10 269 11.3 0.0 0.00 0.00 0.00 57 1009.3
20260906073541 10 250 12.9 0.0 0.00 0.00 0.00 57 1009.3
20260906073048 10 267 12.9 0.0 0.00 0.00 0.00 58 1009.3
20260906072555 9 351 9.7 0.0 0.00 0.00 0.00 58 1009.4
20260906072057 10 35 8.0 0.0 0.00 0.00 0.00 56 1009.4
20260906071503 10 202 9.7 0.0 0.00 0.00 0.00 55 1008.9
20260906071008 10 200 11.3 0.0 0.00 0.00 0.00 55 1008.9
20260906070518 10 199 14.5 0.0 0.00 0.00 0.00 55 1009.0
20260906070026 10 211 14.5 0.0 0.00 0.00 0.00 54 1009.0
20260906065534 11 216 14.5 0.0 0.00 0.00 0.00 54 1009.0
20260906065039 11 221 11.3 0.0 0.00 0.00 0.00 53 1009.0
20260906064546 10 219 9.7 0.0 0.00 0.00 0.00 54 1008.9
20260906064053 11 203 12.9 0.0 0.00 0.00 0.00 54 1008.8
20260906063549 10 211 12.9 0.0 0.00 0.00 0.00 54 1008.9
20260906063049 10 221 11.3 0.0 0.00 0.00 0.00 54 1009.1
20260906062549 11 234 9.7 0.0 0.00 0.00 0.00 54 1009.2
20260906062053 11 227 9.7 0.0 0.00 0.00 0.00 53 1009.2
20260906061558 11 226 11.3 0.0 0.00 0.00 0.00 53 1009.2
20260906061057 11 205 9.7 0.0 0.00 0.00 0.00 50 1009.3
20260906060506 11 202 4.8 0.0 0.00 0.00 0.00 52 1009.2
20260906060020 10 179 3.2 0.0 0.00 0.00 0.00 52 1009.5
20260906055533 10 188 4.8 0.0 0.00 0.00 0.00 53 1009.3
20260906055042 10 188 6.4 0.0 0.00 0.00 0.00 52 1009.3
20260906054549 10 193 6.4 0.0 0.00 0.00 0.00 52 1009.3
20260906054053 10 192 8.0 0.0 0.00 0.00 0.00 52 1009.3
20260906053506 10 192 8.0 0.0 0.00 0.00 0.00 51 1009.3
20260906053016 11 183 9.7 0.0 0.00 0.00 0.00 51 1009.3
20260906052525 11 169 11.3 0.0 0.00 0.00 0.00 51 1009.4
20260906052029 11 170 9.7 0.0 0.00 0.00 0.00 53 1009.5
20260906051536 11 159 9.7 0.0 0.00 0.00 0.00 53 1009.5
20260906051050 11 181 11.3 0.0 0.00 0.00 0.00 53 1009.5
20260906050556 11 185 11.3 0.0 0.00 0.00 0.00 53 1009.4
20260906050124 11 204 11.3 0.0 0.00 0.00 0.00 52 1009.4
20260906045518 12 196 9.7 0.0 0.00 0.00 0.00 51 1009.6
20260906045032 12 185 8.0 0.0 0.00 0.00 0.00 51 1009.7
20260906044538 12 189 6.4 0.0 0.00 0.00 0.00 49 1009.7
20260906044053 12 178 6.4 0.0 0.00 0.00 0.00 48 1009.7
20260906043557 12 173 8.0 0.0 0.00 0.00 0.00 49 1009.8
20260906043009 12 169 8.0 0.0 0.00 0.00 0.00 48 1009.8
20260906042528 13 189 8.0 0.0 0.00 0.00 0.00 45 1009.8
20260906042039 14 164 9.7 0.0 0.00 0.00 0.00 43 1009.7
20260906041543 15 216 12.9 0.0 0.00 0.00 0.00 42 1009.7
20260906041055 15 211 12.9 0.0 0.00 0.00 0.00 42 1009.6
20260906040559 15 202 14.5 0.0 0.00 0.00 0.00 42 1009.7
20260906040003 15 213 14.5 0.0 0.00 0.00 0.00 42 1009.7
20260906035606 15 212 12.9 0.0 0.00 0.00 0.00 42 1009.7
20260906035102 15 223 11.3 0.0 0.00 0.00 0.00 42 1009.7
20260906034556 15 215 11.3 0.0 0.00 0.00 0.00 42 1009.7
20260906034007 15 217 11.3 0.0 0.00 0.00 0.00 41 1009.7
20260906033514 15 213 9.7 0.0 0.00 0.00 0.00 40 1009.4
20260906033053 15 218 9.7 0.0 0.00 0.00 0.00 40 1009.3
20260906032533 15 201 9.7 0.0 0.00 0.00 0.00 40 1009.3
20260906032025 15 200 9.7 0.0 0.00 0.00 0.00 40 1009.2
20260906031515 15 208 9.7 0.0 0.00 0.00 0.00 40 1009.2
20260906031013 15 210 9.7 0.0 0.00 0.00 0.00 41 1009.1
20260906030513 14 213 9.7 0.0 0.00 0.00 0.00 40 1009.0
20260906030013 15 212 8.0 0.0 0.00 0.00 0.00 39 1008.9
20260906025508 15 208 8.0 0.0 0.00 0.00 0.00 39 1008.8
20260906025002 15 198 6.4 0.0 0.00 0.00 0.00 38 1008.7
20260906024505 15 186 6.4 0.0 0.00 0.00 0.00 38 1008.7
20260906024109 16 182 8.0 0.0 0.00 0.00 0.00 38 1008.8
20260906023607 16 176 8.0 0.0 0.00 0.00 0.00 37 1008.6
20260906023102 16 179 9.7 0.0 0.00 0.00 0.00 36 1008.6
20260906022607 16 171 8.0 0.0 0.00 0.00 0.00 36 1008.4
20260906022004 16 184 8.0 0.0 0.00 0.00 0.00 35 1008.2
20260906021514 17 164 8.0 0.0 0.00 0.00 0.00 34 1008.2
20260906021105 17 157 6.4 0.0 0.00 0.00 0.00 33 1008.2
20260906020605 17 160 6.4 0.0 0.00 0.00 0.00 33 1008.2
20260906020108 18 196 6.4 0.0 0.00 0.00 0.00 31 1008.1
20260906015603 19 196 8.0 0.0 0.00 0.00 0.00 30 1007.9
20260906015058 20 193 8.0 0.0 0.00 0.00 0.00 30 1008.0
20260906014609 20 195 8.0 0.0 0.00 0.00 0.00 29 1007.9
20260906014050 21 190 8.0 0.0 0.00 0.00 0.00 28 1007.9
20260906013539 21 181 8.0 0.0 0.00 0.00 0.00 27 1007.7
20260906013048 22 203 8.0 0.0 0.00 0.00 0.00 27 1007.9
20260906012545 22 207 11.3 0.0 0.00 0.00 0.00 26 1007.8
20260906012046 22 205 12.9 0.0 0.00 0.00 0.00 26 1007.7
20260906011558 23 209 12.9 0.0 0.00 0.00 0.00 25 1007.7
20260906011058 23 194 14.5 0.0 0.00 0.00 0.00 25 1007.6
20260906010501 23 180 16.1 0.0 0.00 0.00 0.00 25 1007.6
20260906005509 23 196 14.5 0.0 0.00 0.00 0.00 24 1007.7
20260906005052 23 201 14.5 0.0 0.00 0.00 0.00 24 1007.6
20260906004551 23 200 16.1 0.0 0.00 0.00 0.00 24 1007.5
20260906004043 23 180 19.3 0.0 0.00 0.00 0.00 24 1007.7
20260906003548 23 198 19.3 0.0 0.00 0.00 0.00 24 1007.6
20260906003101 23 192 19.3 0.0 0.00 0.00 0.00 24 1007.6
20260906002555 23 216 19.3 0.0 0.00 0.00 0.00 24 1007.6
20260906002101 23 200 19.3 0.0 0.00 0.00 0.00 23 1007.6
20260906001559 24 196 20.9 0.0 0.00 0.00 0.00 23 1007.5
20260906001012 24 209 24.1 0.0 0.00 0.00 0.00 23 1007.6
20260906000526 24 221 24.1 0.0 0.00 0.00 0.00 22 1007.5
20260906000042 24 211 24.1 0.0 0.00 0.00 0.00 22 1007.5
20260905235549 24 221 22.5 0.0 0.00 0.00 0.00 22 1007.5